COSMOS 1691 DEB, 16267

Orbit data source: Space-Track

COSMOS 1691 DEB, 16267 is space debris in LEO originally from a launch on Wed, 09 Oct 1985 UTC launched from the Plesetsk Missile And Space Complex (PKMTR). Debris objects in space refer to the collection of defunct objects orbiting the Earth. Examples of debris include non-operational satellites, rocket bodies, and fragments generated from explosions, collisions, or faulty payload assembly.

Loading next visibility...
Identifier
16267, 1985-094L
Orbit
LEO
Country
Flag of CISCIS
Related business
Manufacturer
Unknown
Mission
Spacecraft
Bus & Motor
Unknown
Mass
Unknown
Launch date (UTC)
1985-10-09 (40 years ago)
Launch vehicle
Unknown
Launch site
Plesetsk Missile And Space Complex (PKMTR)
Object type
Payload
Rocket body
Debris
Shape & HBR
Unknown shape, 0.1 m
Radar Cross Section
Small (<0.1 m²)

Expand to show TLE details & history
Last TLE update: 3 days ago

TLE from 3 days ago
0 COSMOS 1691 DEB
1 16267U 85094L   26035.08094144  .00003222  00000-0  79816-2 0  9996
2 16267  82.6345 246.9050 0047811  73.6860  52.1520 13.19593356526833
Epoch: 2026-02-04T01:56Z
TLE epoch observation values (Epoch: 2026-02-04T01:56:33.340Z)
Latitude
53.18365°
Longitude
-106.37974°
Altitude
1,172.838 km
Speed
7.283 km/s
True Right ascension
03h 48m 02s
True Declination
53° 01' 39"
Sunlit
Object was in daylight at epoch
Visualization orbit readout
Latitude
Unknown
Longitude
Unknown
Altitude
Unknown
Speed
Unknown
Apparent Right ascension
Unknown
Apparent Declination
Unknown
Sunlit
N/A
Visualization observer readout
Local Sidereal Time
18:56:00
Azimuth
Unknown
Elevation
Unknown
Doppler factor
Unknown
Orbital elements
Apogee altitude
1,219.664 km
Perigee altitude
1,147.358 km
Semi-major axis
7,561.648 km
Eccentricity
0.00478
Inclination
82.6345°
RAAN
246.905°
Arg. of periapsis
73.686°
True anomaly
52.58621°
Mean anomaly
52.152°
Eccentric anomaly
52.36895°
Mean motion
3.30079 °/min
Orbital period
109.06 mins
BSTAR
0.0079816
Loading maneuver chart data...
Computing Atmospheric mass density...
Loading historical data...
Loading historical data...
Loading historical data...
Loading historical data...
Loading historical data...
Loading historical data...
Loading historical data...

Documentation

Showing up to 5 results
|